Regional Weather Roundup
Issued by NWS

Home | Current Version | Previous Version | Text Only | Print | Product List | Glossary On
Versions: 1 2 3 4 5 6 7 8 9 10 11 12 13 14 15 16 17 18 19 20 21 22 23 24 25 26 27 28 29 30 31 32 33 34 35 36 37 38 39 40 41 42 43 44 45 46 47 48 49 50
000
ASPQ40 PGUM 031414
RWRPQ
WEATHER ROUNDUP FOR THE MARIANAS AND MICRONESIA
NATIONAL WEATHER SERVICE TIYAN GU
1200 AM CHST TUE AUG 04 2015

GUZ001>004-031500-
MARIANA ISLANDS-

CITY           SKY/WX    TMP DP  RH WIND       PRES   REMARKS
GUAM AIRPORT   PTCLDY    81  75  83 S5        29.65S
ANDERSEN AFB   NOT AVBL
ROTA AIRPORT   NOT AVBL
TINIAN AP      NOT AVBL
SAIPAN AP      NOT AVBL

$$

PMZ161-031500-
REPUBLIC OF PALAU-

CITY           SKY/WX    TMP DP  RH WIND       PRES   REMARKS
KOROR AP       LGT RAIN  79  75  89 W17G26    29.75F
KOROR WSO      CLOUDY    82  75  78 W10G22    29.78F

$$

PMZ171>174-031500-
FEDERATED STATES OF MICRONESIA-

CITY           SKY/WX    TMP DP  RH WIND       PRES   REMARKS
YAP AIRPORT    MOCLDY    82  77  83 W16G24    29.73R HX  91
CHUUK AP       CLOUDY    79  77  94 SW12      29.81F
POHNPEI AP     NOT AVBL
POHNPEI WSO    CLOUDY    79  77  94 SE3       29.84F
KOSRAE AP      NOT AVBL

$$

PMZ181-031500-
REPUBLIC OF THE MARSHALL ISLANDS-

CITY           SKY/WX    TMP DP  RH WIND       PRES   REMARKS
KWAJALEIN AP   CLOUDY    81  73  78 N7        29.77S
MAJURO AP      NOT AVBL
MAJURO WSO     CLOUDY    82  79  89 E5        29.74F HX  93

$$



USA.gov is the U.S. government's official web portal to all federal, state and local government web resources and services.